Tracking 29892 objects as of 21-Nov-2024
HD Live streaming from Space Station
objects crossing your sky now

ATLAS CENTAUR DEB

Track ATLAS CENTAUR DEB now!


NORAD ID: 43342
Int'l Code: 2018-036D
Perigee: 35,129.7 km
Apogee: 35,325.6 km
Inclination: 5.7 °
Period: 1,407.3 minutes
Semi major axis: 41598 km
RCS: Unknown
Launch date: April 14, 2018
Source: United States (US)
Launch site: AIR FORCE EASTERN TEST RANGE (AFETR)

Note: This is SATELLITE DEBRIS
Your satellite tracking list
Your tracking list is empty




NASA's NSSDC Master Catalog

Two Line Element Set (TLE):
1 43342U 18036D   24325.22700576 -.00000134  00000-0  00000-0 0  9998
2 43342   5.6963  73.9857 0023545 155.6190 204.3139  1.02325709 19430
Source of the keplerian elements: McCants